Location: Ambatotampy
(18.8181°S, 47.6186°E)
Time: 23:48:30
(UTC+00:00)

SeaSat 1 - Pass Details

Date: 21 January 2021
Orbit: 744 x 747 km, 108.0° (Epoch: 24 February)

Event Time Altitude Azimuth Distance (km) Brightness Sun altitude
Rises 00:13:29 0° 160° (SSE) 3,201 6.5 -28.9°
Reaches altitude 10° 00:15:46 10° 161° (SSE) 2,272 5.6 -28.5°
Enters shadow 00:20:07 67° 188° (S) 809 2.6 -27.7°
